When you browse on this site, cookies collect data to enhance your experience and personalize the content and advertising you see.
Visit our Privacy Policy to learn more. By continuing to use the site, you agree to this use of cookies and data.
  • In Hungary
  • List of Countries
  • For 7 days
  • Water Temperature
  • Weather Map
  • News
  • Weather Widgets
  • user-avatar
    Login

    Hourly Weather Myshlyatino

    Today, 20 January, Monday

    Time Temperature Precipitation Wind Pressure Humidity
    00:00 0°C° 0 mm 5 mps 750 mmHg 90%
    01:00 0°C° 0 mm 4 mps 750 mmHg 87%
    02:00 0°C° 0 mm 4 mps 750 mmHg 86%
    03:00 0°C° 0 mm 4 mps 750 mmHg 87%
    04:00 0°C° 0 mm 4 mps 750 mmHg 89%
    05:00 0°C° 0 mm 4 mps 750 mmHg 90%
    06:00 -1°C° 0 mm 4 mps 750 mmHg 91%
    07:00 -1°C° 0 mm 4 mps 750 mmHg 92%
    08:00 -1°C° 0 mm 5 mps 750 mmHg 93%
    09:00 -1°C° 0 mm 5 mps 750 mmHg 91%
    10:00 -1°C° 0 mm 5 mps 749 mmHg 89%
    11:00 -1°C° 0 mm 5 mps 749 mmHg 87%
    12:00 -1°C° 0 mm 5 mps 749 mmHg 88%
    13:00 -1°C° 0 mm 5 mps 750 mmHg 90%
    14:00 -1°C° 0 mm 5 mps 749 mmHg 92%
    15:00 -1°C° 0 mm 5 mps 749 mmHg 91%
    16:00 -1°C° 0 mm 5 mps 749 mmHg 91%
    17:00 -1°C° 0 mm 5 mps 748 mmHg 90%
    18:00 -1°C° 0 mm 5 mps 748 mmHg 87%
    19:00 -1°C° 0 mm 5 mps 747 mmHg 84%
    20:00 -1°C° 0 mm 5 mps 747 mmHg 81%
    21:00 -1°C° 0 mm 5 mps 746 mmHg 83%
    22:00 -1°C° 0 mm 5 mps 746 mmHg 84%
    23:00 -2°C° 0 mm 5 mps 745 mmHg 85%

    Tomorrow, 21 January, Tuesday

    Time Temperature Precipitation Wind Pressure Humidity
    00:00 -1°C° 0 mm 5 mps 744 mmHg 85%
    01:00 -1°C° 0 mm 5 mps 744 mmHg 85%
    02:00 -1°C° 0 mm 5 mps 743 mmHg 85%
    03:00 -1°C° 0.2 mm 5 mps 742 mmHg 87%
    04:00 -1°C° 0.2 mm 6 mps 741 mmHg 89%
    05:00 -1°C° 0.2 mm 6 mps 740 mmHg 92%
    06:00 +1°C° 0.2 mm 6 mps 739 mmHg 90%
    07:00 +1°C° 0.2 mm 6 mps 738 mmHg 89%
    08:00 +2°C° 0.2 mm 6 mps 738 mmHg 88%
    09:00 +2°C° 0 mm 6 mps 737 mmHg 87%
    10:00 +2°C° 0 mm 6 mps 737 mmHg 87%
    11:00 +3°C° 0 mm 6 mps 736 mmHg 87%
    12:00 +3°C° 0 mm 6 mps 736 mmHg 87%
    13:00 +3°C° 0 mm 5 mps 735 mmHg 88%
    14:00 +3°C° 0 mm 5 mps 734 mmHg 89%
    15:00 +3°C° 0.9 mm 5 mps 733 mmHg 91%
    16:00 +3°C° 0.9 mm 4 mps 732 mmHg 92%
    17:00 +3°C° 0.9 mm 4 mps 731 mmHg 94%
    18:00 +2°C° 0.3 mm 5 mps 732 mmHg 88%
    19:00 +1°C° 0.3 mm 6 mps 732 mmHg 83%
    20:00 0°C° 0.3 mm 7 mps 732 mmHg 77%
    21:00 -1°C° 0 mm 7 mps 732 mmHg 76%
    22:00 -2°C° 0 mm 6 mps 732 mmHg 75%
    23:00 -3°C° 0 mm 6 mps 733 mmHg 74%

    Day after tomorrow, 22 January, Wednesday

    Time Temperature Precipitation Wind Pressure Humidity
    00:00 -3°C° 0 mm 6 mps 733 mmHg 74%
    01:00 -3°C° 0 mm 6 mps 733 mmHg 75%
    02:00 -4°C° 0 mm 6 mps 733 mmHg 75%
    03:00 -4°C° 0 mm 6 mps 732 mmHg 77%
    04:00 -4°C° 0 mm 6 mps 731 mmHg 80%
    05:00 -4°C° 0 mm 6 mps 730 mmHg 82%
    06:00 -4°C° 0.1 mm 5 mps 730 mmHg 81%
    07:00 -4°C° 0.1 mm 5 mps 729 mmHg 81%
    08:00 -4°C° 0.1 mm 5 mps 729 mmHg 80%
    09:00 -4°C° 0.2 mm 5 mps 729 mmHg 79%
    10:00 -2°C° 0.2 mm 5 mps 728 mmHg 79%
    11:00 -3°C° 0.2 mm 6 mps 728 mmHg 78%
    12:00 -2°C° 0.1 mm 5 mps 728 mmHg 74%
    13:00 -2°C° 0.1 mm 5 mps 728 mmHg 71%
    14:00 -4°C° 0.1 mm 5 mps 728 mmHg 67%
    15:00 -4°C° 0 mm 5 mps 729 mmHg 71%
    16:00 -5°C° 0 mm 5 mps 729 mmHg 75%
    17:00 -5°C° 0 mm 5 mps 729 mmHg 79%
    18:00 -5°C° 0 mm 5 mps 730 mmHg 78%
    19:00 -5°C° 0 mm 5 mps 730 mmHg 77%
    20:00 -5°C° 0 mm 4 mps 731 mmHg 75%
    21:00 -6°C° 0 mm 5 mps 731 mmHg 74%
    22:00 -6°C° 0 mm 6 mps 732 mmHg 73%
    23:00 -7°C° 0 mm 7 mps 732 mmHg 72%

    23 January, Thursday

    Time Temperature Precipitation Wind Pressure Humidity
    00:00 -8°C° 0 mm 7 mps 733 mmHg 69%
    01:00 -8°C° 0 mm 7 mps 734 mmHg 67%
    02:00 -9°C° 0 mm 7 mps 735 mmHg 65%
    03:00 -9°C° 0 mm 7 mps 735 mmHg 62%
    04:00 -9°C° 0 mm 7 mps 735 mmHg 60%
    05:00 -9°C° 0 mm 7 mps 736 mmHg 58%
    06:00 -9°C° 0 mm 6 mps 736 mmHg 58%
    07:00 -9°C° 0 mm 6 mps 736 mmHg 57%
    08:00 -9°C° 0 mm 6 mps 737 mmHg 57%
    09:00 -9°C° 0.1 mm 7 mps 737 mmHg 59%
    10:00 -8°C° 0.1 mm 7 mps 737 mmHg 61%
    11:00 -8°C° 0.1 mm 7 mps 738 mmHg 64%
    12:00 -8°C° 0 mm 6 mps 738 mmHg 60%
    13:00 -8°C° 0 mm 6 mps 739 mmHg 57%
    14:00 -8°C° 0 mm 6 mps 740 mmHg 54%
    15:00 -9°C° 0 mm 6 mps 740 mmHg 56%
    16:00 -8°C° 0 mm 5 mps 741 mmHg 59%
    17:00 -8°C° 0 mm 5 mps 741 mmHg 61%
    18:00 -9°C° 0 mm 4 mps 741 mmHg 62%
    19:00 -9°C° 0 mm 4 mps 742 mmHg 63%
    20:00 -8°C° 0 mm 3 mps 742 mmHg 64%
    21:00 -8°C° 0 mm 3 mps 742 mmHg 62%
    22:00 -8°C° 0 mm 3 mps 742 mmHg 61%
    23:00 -8°C° 0 mm 3 mps 742 mmHg 60%

    24 January, Friday

    Time Temperature Precipitation Wind Pressure Humidity
    00:00 -8°C° 0 mm 3 mps 742 mmHg 63%
    01:00 -7°C° 0 mm 3 mps 741 mmHg 66%
    02:00 -7°C° 0 mm 3 mps 741 mmHg 69%
    03:00 -6°C° 0.1 mm 3 mps 740 mmHg 76%
    04:00 -7°C° 0.1 mm 4 mps 739 mmHg 84%
    05:00 -5°C° 0.1 mm 4 mps 738 mmHg 92%
    06:00 -5°C° 0.1 mm 4 mps 738 mmHg 91%
    07:00 -4°C° 0.1 mm 4 mps 737 mmHg 90%
    08:00 -4°C° 0.1 mm 4 mps 736 mmHg 89%
    09:00 -3°C° 0.1 mm 4 mps 736 mmHg 90%
    10:00 -3°C° 0.1 mm 4 mps 736 mmHg 91%
    11:00 -1°C° 0.1 mm 3 mps 736 mmHg 91%
    12:00 -1°C° 0 mm 4 mps 735 mmHg 91%
    13:00 0°C° 0 mm 4 mps 735 mmHg 91%
    14:00 0°C° 0 mm 4 mps 735 mmHg 90%
    15:00 0°C° 0 mm 4 mps 735 mmHg 89%
    16:00 0°C° 0 mm 4 mps 736 mmHg 88%
    17:00 0°C° 0 mm 5 mps 736 mmHg 88%
    18:00 0°C° 0 mm 4 mps 736 mmHg 88%
    19:00 0°C° 0 mm 3 mps 736 mmHg 89%
    20:00 0°C° 0 mm 3 mps 737 mmHg 89%
    21:00 +1°C° 0 mm 2 mps 737 mmHg 91%
    22:00 -1°C° 0 mm 2 mps 736 mmHg 93%
    23:00 -1°C° 0 mm 2 mps 736 mmHg 95%

    25 January, Saturday

    Time Temperature Precipitation Wind Pressure Humidity
    00:00 -1°C° 0.2 mm 2 mps 736 mmHg 96%
    01:00 -1°C° 0.2 mm 2 mps 736 mmHg 97%
    02:00 +2°C° 0.2 mm 1 mps 736 mmHg 98%
    03:00 +1°C° 0.3 mm 2 mps 736 mmHg 98%
    04:00 +1°C° 0.3 mm 2 mps 735 mmHg 97%
    05:00 +1°C° 0.3 mm 3 mps 735 mmHg 97%
    06:00 +1°C° 0.3 mm 3 mps 735 mmHg 97%
    07:00 +1°C° 0.3 mm 3 mps 735 mmHg 97%
    08:00 +1°C° 0.3 mm 3 mps 735 mmHg 96%
    09:00 +1°C° 0.2 mm 3 mps 735 mmHg 97%
    10:00 +1°C° 0.2 mm 3 mps 735 mmHg 97%
    11:00 +2°C° 0.2 mm 3 mps 736 mmHg 97%
    12:00 +2°C° 0.1 mm 3 mps 736 mmHg 95%
    13:00 +2°C° 0.1 mm 3 mps 736 mmHg 94%
    14:00 +2°C° 0.1 mm 3 mps 736 mmHg 93%
    15:00 +1°C° 0 mm 3 mps 737 mmHg 93%
    16:00 +1°C° 0 mm 3 mps 737 mmHg 93%
    17:00 +1°C° 0 mm 2 mps 738 mmHg 93%
    18:00 +1°C° 0 mm 2 mps 738 mmHg 93%
    19:00 -1°C° 0 mm 2 mps 738 mmHg 93%
    20:00 -2°C° 0 mm 2 mps 739 mmHg 93%
    21:00 -2°C° 0 mm 2 mps 739 mmHg 94%
    22:00 -2°C° 0 mm 2 mps 739 mmHg 94%
    23:00 -2°C° 0 mm 2 mps 740 mmHg 95%
    Show more